This demonstration page uses our WeatherBlox Daily Observations layout. Learn more.

Left ArrowRight Arrow

Hourly Observations for April 22, 2019

Temp ( °F °C ) Dew Point ( °F °C ) Humidity (%) Winds ( mph kmh ) Pressure ( in mb ) Visibility ( mi km ) Precip ( " mm )
12:14 am 00:14 Mostly Cloudy 73 22.8 51 10.6 46 46 SSE 20 31 29.71 1006 10 16 0.00 0.03
12:52 am 00:52 Cloudy 71 21.7 51 10.6 49 49 S 15 24 29.74 1007 10 16 0.00 0.03
1:26 am 01:26 Cloudy with Thunderstorms 69 20.6 51 10.6 53 53 SSE 14 22 29.75 1007 10 16 0.00 0.00
1:47 am 01:47 Cloudy 72 22 48 9 44 44 S 12 19 29.73 1007 10 16 0.00 0.00
1:52 am 01:52 Cloudy 71 21.7 49 9.4 46 46 S 12 19 29.73 1007 10 16 0.00 0.00
2:52 am 02:52 Cloudy 67 19.4 51 10.6 57 57 E 8 13 29.68 1005 10 16 0.00 0.00
3:52 am 03:52 Cloudy 67 19.4 51 10.6 57 57 S 12 19 29.75 1008 10 16 0.00 0.03
4:52 am 04:52 Cloudy 67 19.4 51 10.6 57 57 S 8 13 29.76 1008 10 16 0.00 0.00
5:52 am 05:52 Cloudy with Light Rain 64 17.8 52 11.1 65 65 SSE 5 7 29.76 1008 10 16 0.00 0.03
6:52 am 06:52 Cloudy with Light Rain 62 16.7 55 12.8 78 78 SE 5 7 29.77 1008 10 16 0.00 0.03
7:52 am 07:52 Cloudy 64 17.8 55 12.8 73 73 S 6 9 29.80 1009 10 16 0.00 0.03
8:52 am 08:52 Cloudy 63 17.2 56 13.3 78 78 NNW 10 17 29.81 1010 10 16 0.00 0.00
9:19 am 09:19 Cloudy 58 14.4 52 11.1 81 81 NNW 12 19 29.85 1011 10 16 0.00 0.00
9:52 am 09:52 Cloudy 57 13.9 50 10 78 78 NNW 17 28 29.86 1011 10 16 0.00 0.00
10:52 am 10:52 Cloudy 55 12.8 48 8.9 77 77 NNW 14 22 29.90 1013 10 16 0.00 0.00
11:52 am 11:52 Cloudy 56 13.3 47 8.3 72 72 NNW 18 30 29.93 1014 10 16 0.00 0.00
12:52 pm 12:52 Cloudy 55 12.8 47 8.3 74 74 NW 13 20 29.96 1015 10 16 0.00 0.00
1:52 pm 13:52 Cloudy 55 12.8 46 7.8 72 72 NNW 13 20 29.97 1015 10 16 0.00 0.00
2:52 pm 14:52 Cloudy 55 12.8 46 7.8 72 72 NW 15 24 29.99 1016 10 16 0.00 0.00
3:52 pm 15:52 Cloudy 54 12.2 46 7.8 75 75 NW 17 28 30.00 1016 10 16 0.00 0.00
4:52 pm 16:52 Cloudy 54 12.2 46 7.8 75 75 NW 18 30 30.01 1016 10 16 0.00 0.00
5:45 pm 17:45 Cloudy 53 11.7 46 7.8 77 77 NW 15 24 30.04 1017 10 16 0.00 0.00
5:52 pm 17:52 Cloudy 53 11.7 46 7.8 77 77 NW 17 28 30.04 1017 10 16 0.00 0.00
6:44 pm 18:44 Cloudy 53 11.7 45 7.2 74 74 NNW 15 24 30.06 1018 10 16 0.00 0.00
6:52 pm 18:52 Cloudy 53 11.7 45 7.2 74 74 NW 14 22 30.06 1018 10 16 0.00 0.00
7:36 pm 19:36 Cloudy 52 11.1 45 7.2 77 77 NW 13 20 30.09 1019 10 16 0.00 0.00
7:52 pm 19:52 Cloudy 52 11.1 45 7.2 77 77 NW 15 24 30.07 1018 10 16 0.00 0.00
8:52 pm 20:52 Cloudy 52 11.1 45 7.2 77 77 NW 13 20 30.07 1018 10 16 0.00 0.00
9:20 pm 21:20 Cloudy 53 11.7 45 7.2 74 74 NNW 13 20 30.08 1019 10 16 0.00 0.00
9:52 pm 21:52 Cloudy 53 11.7 45 7.2 74 74 N 16 26 30.09 1019 10 16 0.00 0.00
10:52 pm 22:52 Cloudy 52 11.1 45 7.2 77 77 N 14 22 30.11 1020 10 16 0.00 0.00
11:52 pm 23:52 Cloudy 52 11.1 45 7.2 77 77 N 16 26 30.11 1020 10 16 0.00 0.00

Powered by AerisWeather